Vorticity
4 5 8 7 6 7 9 10 10 9 8 6 4 2 4 6 4 5 1 -0 2 3 5 5 4 6 8 7 6 7 7 6 5 4 4 4 6 5 5 4 4 5 7
3 3 3 3 6 6 7 8 9 9 8 5 3 1 2 4 4 5 5 6 4 2 2 5 6 5 4 8 8 8 9 11 5 5 3 5 5 6 4 3 1 2 2
4 4 4 4 3 3 5 7 7 7 8 8 5 3 1 2 2 2 3 5 5 4 3 2 3 5 6 5 6 7 9 12 13 3 4 5 4 8 9 6 6 5 5
3 6 4 5 4 4 3 4 6 8 7 8 7 4 3 1 1 2 1 2 2 4 4 4 3 3 3 5 6 5 7 8 12 7 6 3 4 7 6 6 7 7 7
2 3 2 3 3 3 3 4 3 4 6 6 7 7 6 4 1 1 1 1 2 2 1 2 2 3 4 3 3 5 6 6 7 10 4 6 9 6 5 5 5 5 5
3 1 1 5 5 5 4 3 4 4 2 5 7 6 6 5 6 6 3 2 2 2 2 1 1 2 2 3 4 4 3 7 7 8 5 10 8 7 5 4 4 4 5
-1 1 7 2 3 7 5 7 7 4 4 4 3 2 5 8 8 6 5 4 4 4 3 2 2 1 1 1 2 3 4 4 4 8 6 6 6 7 6 5 3 3 3
3 3 5 4 5 3 4 4 3 4 5 3 3 2 3 4 3 4 7 10 6 4 4 5 4 3 2 2 1 1 1 4 4 3 5 6 5 5 5 5 6 4 3
3 7 2 4 4 5 3 3 6 5 4 6 6 8 9 8 7 6 4 2 3 8 10 7 5 5 4 3 3 2 1 1 1 5 4 3 5 6 5 5 4 4 4
3 3 5 5 6 4 8 7 5 7 2 1 3 5 4 3 4 5 6 5 7 5 3 3 6 8 9 7 5 4 4 2 1 2 2 5 4 3 5 7 6 4 5
8 9 9 9 9 8 8 7 6 6 7 6 8 8 7 8 9 9 6 7 5 4 5 7 4 3 2 3 6 6 3 5 5 2 3 2 3 5 4 3 4 6 7
5 4 4 4 4 4 5 4 5 5 4 3 4 5 4 2 4 4 4 4 5 7 9 8 6 4 7 6 4 2 7 7 6 4 5 4 4 3 3 5 4 4 3
4 4 4 5 6 6 6 6 5 8 6 7 8 7 6 7 5 7 7 5 5 6 6 5 3 5 5 10 4 12 4 2 4 6 8 5 3 9 -2 4 4 4 5
5 5 6 5 5 6 7 8 8 8 8 7 8 7 7 7 8 9 8 7 8 7 7 6 5 5 5 3 10 4 9 7 6 4 2 3 5 -1 1 2 5 4 3
5 5 5 5 6 10 9 8 8 9 10 12 10 10 8 9 10 9 5 8 11 11 9 9 8 8 6 7 3 4 4 3 11 4 5 5 7 3 12 5 14 2 4
8 8 13 11 11 10 10 11 10 8 6 6 7 8 8 9 6 3 6 7 6 8 10 12 16 15 14 7 7 6 5 4 -6 -15 20 25 22 6 -1 21 -2 7 6
9 7 4 5 4 7 8 8 10 9 9 8 7 8 8 7 4 6 7 8 6 5 6 5 10 19 19 17 13 9 7 6 6 11 6 3 -2 11 3 13 7 21 14
2 4 5 5 5 4 4 5 6 8 7 8 9 8 7 6 3 1 2 5 5 5 6 6 6 12 22 27 13 10 8 7 4 4 6 -2 7 4 1 -2 -0 12 20
4 4 5 4 4 6 6 5 4 6 6 7 8 8 9 8 8 9 6 5 6 4 3 5 6 7 8 18 32 16 10 9 10 8 5 5 3 7 4 5 8 10 19
5 5 6 7 5 4 4 5 4 6 6 6 7 8 8 7 8 7 7 6 6 7 7 7 3 4 9 10 14 23 24 11 11 12 9 8 8 3 5 5 4 1 0
8 8 8 6 6 6 6 5 6 7 6 6 5 8 8 9 8 7 8 7 8 6 7 9 6 8 5 13 12 11 20 25 15 9 16 12 9 8 8 6 13 7 2
7 8 6 6 6 7 6 6 7 7 7 7 7 6 8 8 9 9 8 7 8 7 6 8 11 8 6 6 7 10 7 13 17 21 17 13 15 12 8 6 6 7 3
6 6 5 6 4 5 6 7 6 6 7 7 7 7 8 9 9 9 9 9 8 6 5 7 4 4 5 5 5 5 5 6 13 16 14 17 17 16 16 14 10 4 9
5 5 8 5 8 8 6 6 7 6 7 7 8 7 6 7 10 8 10 10 10 8 6 5 5 4 3 4 4 5 8 5 4 6 9 9 13 19 18 19 17 5 13
10 11 10 12 13 13 13 11 9 8 6 8 8 8 7 6 6 10 9 8 9 11 9 6 4 3 3 4 4 4 5 4 4 5 3 6 3 3 5 11 24 16 3
5 9 7 6 3 1 11 10 12 11 10 11 11 11 10 8 8 7 9 11 9 9 11 11 10 8 4 2 3 2 2 3 3 3 5 3 3 4 1 3 6 10 13
Height
5889 5891 5891 5890 5889 5888 5886 5885 5883 5882 5881 5881 5881 5881 5881 5881 5880 5879 5877 5876 5875 5873 5871 5869 5867 5866 5864 5862 5861 5860 5859 5858 5858 5857 5857 5855 5854 5854 5854 5854 5853 5852 5852
5892 5892 5893 5891 5891 5889 5889 5887 5885 5884 5884 5883 5882 5882 5882 5881 5880 5879 5878 5877 5876 5874 5872 5871 5869 5867 5865 5864 5863 5861 5860 5859 5859 5859 5858 5857 5856 5856 5856 5856 5856 5856 5855
5896 5895 5894 5893 5892 5892 5890 5889 5888 5887 5886 5885 5884 5883 5883 5882 5881 5880 5878 5877 5876 5874 5873 5872 5870 5869 5867 5866 5864 5863 5861 5860 5860 5860 5859 5858 5858 5857 5857 5857 5857 5858 5858
5898 5897 5896 5895 5894 5893 5892 5891 5890 5889 5887 5887 5886 5885 5884 5883 5882 5880 5878 5878 5876 5875 5874 5872 5870 5869 5868 5866 5865 5864 5863 5862 5861 5860 5860 5860 5860 5858 5857 5858 5858 5859 5859
5899 5898 5897 5896 5896 5894 5893 5892 5891 5889 5887 5886 5886 5885 5884 5883 5883 5881 5879 5879 5877 5876 5874 5872 5871 5869 5868 5867 5866 5864 5863 5862 5861 5861 5860 5860 5861 5858 5858 5858 5858 5858 5859
5900 5899 5898 5898 5897 5896 5894 5893 5891 5889 5888 5887 5886 5884 5883 5883 5882 5881 5879 5878 5877 5876 5874 5873 5871 5870 5869 5867 5866 5865 5864 5863 5863 5861 5860 5861 5860 5859 5859 5858 5858 5858 5858
5901 5901 5900 5898 5898 5896 5894 5893 5892 5890 5888 5887 5886 5884 5883 5882 5881 5880 5879 5878 5876 5876 5874 5873 5872 5870 5869 5867 5866 5865 5864 5863 5862 5861 5860 5859 5858 5859 5859 5859 5858 5858 5858
5901 5901 5899 5898 5897 5896 5894 5893 5892 5890 5889 5887 5886 5884 5883 5881 5880 5879 5878 5877 5875 5875 5874 5873 5871 5870 5869 5867 5866 5865 5864 5862 5863 5861 5861 5859 5858 5857 5857 5858 5858 5858 5858
5901 5899 5898 5897 5896 5894 5893 5892 5891 5889 5888 5887 5886 5884 5883 5880 5879 5877 5876 5875 5874 5873 5872 5871 5870 5869 5868 5867 5866 5865 5864 5862 5862 5860 5859 5858 5858 5857 5856 5855 5855 5855 5855
5900 5898 5897 5896 5894 5893 5892 5891 5889 5888 5887 5885 5884 5883 5882 5880 5878 5876 5875 5873 5873 5872 5870 5869 5867 5866 5866 5865 5864 5864 5863 5861 5861 5860 5858 5857 5856 5855 5855 5854 5854 5853 5853
5899 5897 5896 5895 5893 5892 5891 5890 5888 5886 5885 5885 5883 5880 5880 5878 5877 5875 5873 5872 5870 5869 5868 5868 5866 5864 5861 5859 5858 5858 5858 5858 5858 5858 5856 5856 5855 5853 5852 5852 5851 5851 5851
5897 5895 5895 5893 5892 5890 5889 5888 5886 5885 5882 5880 5879 5878 5875 5874 5874 5872 5871 5869 5866 5865 5865 5864 5863 5861 5859 5857 5858 5856 5855 5852 5853 5855 5854 5853 5852 5852 5852 5850 5849 5848 5848
5897 5896 5892 5891 5891 5888 5886 5885 5883 5882 5879 5877 5876 5874 5872 5870 5869 5868 5866 5864 5862 5860 5859 5859 5856 5855 5854 5855 5854 5853 5852 5848 5847 5850 5850 5849 5848 5847 5846 5847 5846 5845 5845
5895 5895 5893 5890 5888 5887 5883 5882 5880 5879 5875 5873 5871 5870 5868 5866 5865 5864 5862 5859 5858 5856 5855 5853 5851 5849 5848 5847 5846 5847 5846 5843 5839 5844 5844 5842 5842 5843 5843 5842 5841 5840 5839
5894 5893 5890 5889 5886 5884 5881 5878 5877 5875 5872 5871 5868 5866 5864 5862 5860 5858 5857 5854 5854 5851 5849 5846 5844 5842 5840 5839 5838 5837 5835 5836 5835 5837 5836 5834 5833 5835 5836 5836 5836 5835 5836
5892 5892 5889 5886 5884 5881 5878 5876 5874 5871 5869 5866 5864 5862 5861 5858 5856 5854 5852 5850 5848 5845 5843 5840 5838 5835 5832 5831 5830 5830 5830 5829 5828 5827 5826 5827 5826 5827 5827 5828 5827 5828 5828
5890 5888 5885 5883 5881 5879 5876 5873 5871 5868 5865 5863 5860 5858 5856 5854 5852 5850 5847 5845 5843 5840 5837 5833 5831 5828 5825 5823 5822 5822 5822 5821 5820 5818 5817 5816 5816 5817 5818 5819 5819 5820 5821
5888 5886 5884 5883 5880 5877 5874 5871 5867 5864 5861 5858 5856 5853 5851 5849 5847 5844 5842 5839 5836 5833 5830 5826 5823 5821 5818 5814 5811 5811 5810 5811 5811 5810 5808 5806 5810 5809 5812 5812 5812 5813 5812
5886 5884 5882 5880 5877 5874 5871 5868 5864 5862 5858 5854 5851 5849 5846 5843 5841 5838 5835 5832 5829 5826 5823 5820 5817 5814 5812 5808 5804 5801 5802 5803 5803 5802 5802 5802 5802 5802 5802 5803 5803 5803 5803
5884 5881 5879 5876 5873 5869 5866 5863 5860 5857 5854 5850 5846 5843 5840 5836 5833 5830 5827 5825 5822 5818 5816 5814 5811 5809 5805 5801 5796 5793 5793 5793 5794 5794 5794 5793 5791 5791 5791 5795 5796 5794 5796
5881 5879 5876 5873 5870 5866 5863 5859 5856 5852 5848 5844 5840 5836 5833 5829 5826 5823 5820 5817 5814 5811 5808 5806 5804 5802 5800 5797 5792 5788 5786 5785 5786 5786 5785 5784 5782 5782 5782 5783 5785 5787 5788
5880 5877 5874 5869 5866 5862 5858 5855 5851 5847 5842 5838 5834 5830 5826 5822 5819 5815 5812 5809 5806 5803 5801 5798 5796 5794 5793 5792 5788 5784 5780 5779 5777 5776 5776 5775 5774 5772 5772 5771 5773 5777 5777
5873 5870 5867 5862 5859 5856 5851 5848 5844 5840 5837 5832 5827 5824 5819 5816 5812 5808 5804 5800 5797 5795 5793 5791 5788 5786 5783 5782 5781 5778 5775 5773 5771 5769 5768 5766 5765 5764 5762 5760 5763 5766 5766
5867 5864 5861 5858 5853 5850 5845 5841 5836 5831 5827 5823 5819 5815 5810 5807 5803 5799 5795 5792 5789 5786 5784 5782 5779 5777 5774 5772 5771 5770 5768 5765 5764 5763 5761 5759 5757 5755 5752 5752 5752 5755 5757
5862 5859 5856 5854 5850 5845 5840 5835 5830 5825 5819 5814 5809 5804 5800 5796 5792 5789 5785 5781 5778 5776 5773 5771 5769 5767 5765 5763 5762 5760 5759 5758 5755 5755 5754 5751 5750 5747 5745 5743 5742 5743 5745
5858 5855 5850 5846 5843 5839 5834 5828 5824 5817 5813 5807 5802 5796 5791 5786 5781 5776 5774 5771 5768 5764 5762 5759 5757 5755 5753 5752 5750 5749 5748 5747 5746 5745 5745 5744 5741 5738 5737 5734 5734 5734 5735